WA3NOA-2 Weather Reports


time (UTC)temp
C
wind
direction
speed
KPH
gust
KPH
rain 1hr
cm
rain 24hr
cm
rain mn
cm
humidity
%
barometer
mb
20260506192707 16 266 3.2 12.9 0.00 0.48 0.48 90 1001.2
20260506192207 16 252 8.0 9.7 0.00 0.48 0.48 90 1001.1
20260506191808 16 286 6.4 12.9 0.00 0.48 0.48 91 1001.0
20260506191707 16 210 3.2 11.3 0.00 0.48 0.48 91 1001.1
20260506191207 16 250 6.4 9.7 0.00 0.48 0.48 91 1001.2
20260506190707 16 251 1.6 16.1 0.00 0.48 0.48 92 1001.3
20260506190308 16 263 1.6 12.9 0.00 0.48 0.48 92 1001.4
20260506190207 16 259 6.4 12.9 0.00 0.48 0.48 92 1001.3
20260506185707 16 242 6.4 11.3 0.00 0.48 0.48 92 1001.4
20260506185207 16 263 6.4 11.3 0.00 0.48 0.48 92 1001.4
20260506184808 15 259 1.6 14.5 0.00 0.48 0.48 92 1001.4
20260506184707 15 269 4.8 14.5 0.00 0.48 0.48 92 1001.5
20260506184207 15 266 9.7 14.5 0.00 0.48 0.48 92 1001.4
20260506183707 15 222 8.0 19.3 0.00 0.48 0.48 92 1001.4
20260506183308 15 275 11.3 19.3 0.00 0.48 0.48 92 1001.5
20260506183207 15 227 9.7 12.9 0.00 0.48 0.48 92 1001.5
20260506182707 15 256 11.3 12.9 0.00 0.48 0.48 92 1001.7
20260506182207 15 263 17.7 19.3 0.00 0.48 0.48 93 1001.7
20260506181808 15 273 17.7 30.6 0.00 0.48 0.48 93 1001.6
20260506181707 15 273 14.5 14.5 0.00 0.48 0.48 93 1001.7
20260506181207 15 256 11.3 12.9 0.00 0.48 0.48 93 1001.6
20260506180707 15 0 0.0 19.3 0.00 0.48 0.48 93 1001.6
20260506180309 15 250 12.9 19.3 0.00 0.48 0.48 93 1001.7
20260506180207 15 267 11.3 14.5 0.00 0.48 0.48 93 1001.8
20260506175707 15 267 1.6 17.7 0.00 0.48 0.48 93 1001.6
20260506175207 15 244 4.8 16.1 0.00 0.48 0.48 93 1001.7
20260506174808 15 250 6.4 22.5 0.00 0.48 0.48 93 1001.7
20260506174707 15 279 9.7 22.5 0.00 0.48 0.48 93 1001.7
20260506174207 15 261 6.4 27.4 0.00 0.48 0.48 93 1001.7
20260506173707 15 285 12.9 22.5 0.00 0.48 0.48 93 1001.8
20260506173308 15 288 4.8 20.9 0.00 0.48 0.48 93 1001.7
20260506173207 15 296 3.2 12.9 0.00 0.48 0.48 93 1001.7
20260506172707 15 269 9.7 17.7 0.00 0.48 0.48 93 1001.8
20260506172207 15 307 3.2 22.5 0.00 0.48 0.48 93 1001.8
20260506171808 15 286 1.6 22.5 0.00 0.48 0.48 93 1001.8
20260506171707 15 161 8.0 22.5 0.00 0.48 0.48 93 1001.7
20260506171207 15 281 4.8 19.3 0.03 0.48 0.48 93 1001.7
20260506170707 15 244 8.0 16.1 0.03 0.48 0.48 93 1001.9
20260506170308 15 241 3.2 17.7 0.03 0.48 0.48 93 1002.0
20260506170207 15 259 12.9 17.7 0.03 0.48 0.48 93 1002.0
20260506165707 15 256 1.6 14.5 0.03 0.48 0.48 93 1002.0
20260506165207 15 265 6.4 14.5 0.03 0.48 0.48 93 1002.0
20260506164808 15 236 6.4 16.1 0.08 0.48 0.48 93 1002.0
20260506164707 15 326 3.2 9.7 0.08 0.48 0.48 93 1001.9
20260506164207 15 262 16.1 24.1 0.10 0.48 0.48 93 1001.8
20260506163707 15 263 9.7 22.5 0.10 0.48 0.48 93 1002.0
20260506163308 15 269 6.4 12.9 0.18 0.48 0.48 93 1001.8
20260506163207 15 267 3.2 12.9 0.18 0.48 0.48 93 1001.9
20260506162706 15 260 4.8 17.7 0.23 0.48 0.48 93 1002.0
20260506162207 15 229 3.2 16.1 0.25 0.48 0.48 93 1002.1
20260506161808 15 280 9.7 11.3 0.25 0.48 0.48 94 1002.0
20260506161706 15 145 4.8 11.3 0.25 0.48 0.48 93 1001.9
20260506161206 15 262 3.2 12.9 0.25 0.46 0.48 93 1001.8
20260506160706 15 267 6.4 22.5 0.30 0.46 0.46 93 1002.0
20260506160308 15 0 0.0 16.1 0.33 0.46 0.46 93 1002.3
20260506160207 15 250 12.9 16.1 0.33 0.46 0.46 93 1002.3
20260506155706 15 0 0.0 16.1 0.33 0.43 0.43 93 1002.6
20260506155207 15 273 4.8 14.5 0.33 0.43 0.43 93 1002.9
20260506154808 15 254 6.4 11.3 0.33 0.41 0.43 92 1002.9
20260506154706 15 271 3.2 11.3 0.33 0.41 0.43 92 1002.9
20260506154206 15 0 0.0 6.4 0.33 0.38 0.41 92 1003.1
20260506153706 15 252 3.2 8.0 0.30 0.36 0.36 91 1003.1
20260506153308 15 257 6.4 16.1 0.25 0.30 0.33 91 1003.1
20260506153206 15 223 3.2 16.1 0.25 0.30 0.33 91 1003.1
20260506152706 15 265 1.6 9.7 0.20 0.25 0.28 91 1003.1
20260506152206 15 275 9.7 9.7 0.20 0.23 0.25 90 1003.0
20260506151808 15 230 6.4 14.5 0.20 0.23 0.23 90 1003.1
20260506151706 15 254 8.0 14.5 0.20 0.23 0.23 90 1003.0
20260506151206 15 263 4.8 11.3 0.20 0.20 0.20 90 1002.9
20260506150706 15 252 1.6 11.3 0.15 0.15 0.18 89 1003.0
20260506150308 15 257 4.8 11.3 0.13 0.13 0.15 89 1002.8
20260506150206 15 258 4.8 11.3 0.13 0.13 0.15 89 1002.8
20260506145706 16 300 6.4 6.4 0.10 0.10 0.10 89 1002.8
20260506145206 16 246 14.5 19.3 0.10 0.10 0.10 88 1002.9
20260506144807 16 228 3.2 12.9 0.08 0.08 0.08 88 1002.9
20260506144706 16 257 4.8 12.9 0.08 0.08 0.08 88 1002.9
20260506144206 16 238 6.4 11.3 0.05 0.05 0.08 88 1003.1
20260506143706 16 260 9.7 16.1 0.05 0.05 0.05 87 1003.0
20260506143307 16 254 4.8 14.5 0.05 0.05 0.05 87 1003.0
20260506143206 16 257 6.4 14.5 0.05 0.05 0.05 86 1003.0
20260506142706 16 263 3.2 20.9 0.05 0.05 0.05 85 1002.8
20260506142206 16 265 3.2 20.9 0.03 0.03 0.03 85 1002.9
20260506141807 16 228 8.0 16.1 0.03 0.03 0.03 84 1002.9
20260506141706 16 256 6.4 11.3 0.03 0.03 0.03 84 1003.0
20260506141206 16 272 3.2 12.9 0.00 0.00 0.00 83 1003.2
20260506140706 17 294 3.2 11.3 0.00 0.00 0.00 82 1003.1
20260506140307 17 299 3.2 25.7 0.00 0.00 0.00 81 1003.0
20260506140206 17 243 14.5 25.7 0.00 0.00 0.00 81 1003.0
20260506135706 17 244 6.4 16.1 0.00 0.00 0.00 80 1003.0
20260506135206 17 254 6.4 14.5 0.00 0.00 0.00 80 1002.9
20260506134808 17 263 6.4 16.1 0.00 0.00 0.00 80 1002.9
20260506134706 17 256 16.1 16.1 0.00 0.00 0.00 80 1002.9
20260506134206 17 250 6.4 20.9 0.00 0.00 0.00 80 1002.8
20260506133706 17 263 4.8 19.3 0.00 0.00 0.00 79 1002.8
20260506133308 17 194 1.6 19.3 0.00 0.00 0.00 79 1002.8
20260506133206 17 295 4.8 19.3 0.00 0.00 0.00 79 1002.7
20260506132706 17 278 14.5 17.7 0.00 0.00 0.00 78 1002.9
20260506132206 17 271 3.2 14.5 0.00 0.00 0.00 78 1003.0
20260506131706 17 238 9.7 17.7 0.00 0.00 0.00 77 1002.9
20260506131206 17 251 6.4 24.1 0.00 0.00 0.00 77 1002.9
20260506130706 17 264 4.8 19.3 0.00 0.00 0.00 77 1002.9
20260506130307 17 261 11.3 24.1 0.00 0.00 0.00 77 1002.9
20260506130206 17 265 11.3 24.1 0.00 0.00 0.00 77 1002.9
20260506125706 17 284 9.7 22.5 0.00 0.00 0.00 77 1003.0
20260506125206 17 257 4.8 14.5 0.00 0.00 0.00 77 1003.1
20260506124706 17 269 4.8 22.5 0.00 0.00 0.00 77 1003.2
20260506124206 17 271 4.8 17.7 0.00 0.00 0.00 76 1003.2
20260506123706 17 266 4.8 20.9 0.00 0.00 0.00 76 1003.3
20260506123308 18 234 8.0 16.1 0.00 0.00 0.00 77 1003.0
20260506123206 18 197 3.2 14.5 0.00 0.00 0.00 77 1002.9
20260506122706 17 259 9.7 12.9 0.00 0.00 0.00 77 1002.9
20260506122206 17 243 6.4 17.7 0.00 0.00 0.00 77 1003.0
20260506121808 17 267 12.9 16.1 0.00 0.00 0.00 77 1003.1
20260506121706 17 293 11.3 16.1 0.00 0.00 0.00 77 1003.1
20260506121206 17 281 1.6 19.3 0.00 0.00 0.00 77 1002.9
20260506120706 17 270 3.2 17.7 0.00 0.00 0.00 77 1002.9
20260506120307 17 297 6.4 20.9 0.00 0.00 0.00 77 1002.9
20260506120206 17 196 1.6 20.9 0.00 0.00 0.00 77 1002.9
20260506115706 17 273 6.4 16.1 0.00 0.00 0.00 77 1002.7
20260506115206 17 281 6.4 12.9 0.00 0.00 0.00 77 1002.7
20260506114808 17 252 6.4 11.3 0.00 0.00 0.00 77 1002.7
20260506114706 17 0 0.0 11.3 0.00 0.00 0.00 77 1002.7
20260506114206 17 226 12.9 19.3 0.00 0.00 0.00 77 1002.8
20260506113706 17 265 6.4 12.9 0.00 0.00 0.00 77 1002.7
20260506113307 17 318 4.8 16.1 0.00 0.00 0.00 77 1002.6
20260506113206 17 245 8.0 16.1 0.00 0.00 0.00 77 1002.6
20260506112706 17 270 9.7 11.3 0.00 0.00 0.00 77 1002.6
20260506112206 17 254 11.3 24.1 0.00 0.00 0.00 77 1002.6
20260506111807 17 236 27.4 27.4 0.00 0.00 0.00 77 1002.6
20260506111706 17 288 4.8 24.1 0.00 0.00 0.00 77 1002.6
20260506111206 17 245 12.9 16.1 0.00 0.00 0.00 77 1002.6
20260506110706 17 250 8.0 24.1 0.00 0.00 0.00 77 1002.6
20260506110307 17 286 16.1 27.4 0.00 0.00 0.00 77 1002.6
20260506110206 17 240 8.0 27.4 0.00 0.00 0.00 77 1002.6
20260506105706 17 263 4.8 17.7 0.00 0.00 0.00 77 1002.6
20260506105206 17 266 12.9 16.1 0.00 0.00 0.00 77 1002.6
20260506104807 17 328 1.6 22.5 0.00 0.00 0.00 77 1002.4
20260506104706 17 134 1.6 14.5 0.00 0.00 0.00 77 1002.6
20260506104206 17 260 9.7 20.9 0.00 0.00 0.00 77 1002.6
20260506103706 17 277 6.4 12.9 0.00 0.00 0.00 77 1002.6
20260506103309 17 257 14.5 19.3 0.00 0.00 0.00 77 1002.5
20260506103206 17 262 4.8 19.3 0.00 0.00 0.00 77 1002.5
20260506102706 17 257 8.0 22.5 0.00 0.00 0.00 77 1002.5
20260506102206 17 274 6.4 25.7 0.00 0.00 0.00 77 1002.5
20260506101807 17 265 4.8 17.7 0.00 0.00 0.00 77 1002.5
20260506101706 17 261 4.8 17.7 0.00 0.00 0.00 77 1002.6
20260506101206 17 244 4.8 14.5 0.00 0.00 0.00 76 1002.4
20260506100706 17 255 12.9 16.1 0.00 0.00 0.00 76 1002.4
20260506100307 17 262 12.9 12.9 0.00 0.00 0.00 76 1002.5
20260506100206 17 252 6.4 11.3 0.00 0.00 0.00 76 1002.5
20260506095706 17 236 16.1 19.3 0.00 0.00 0.00 75 1002.5
20260506095206 17 256 14.5 17.7 0.00 0.00 0.00 75 1002.4
20260506094807 18 273 16.1 20.9 0.00 0.00 0.00 75 1002.5
20260506094706 17 269 1.6 20.9 0.00 0.00 0.00 75 1002.5
20260506094206 18 0 0.0 12.9 0.00 0.00 0.00 75 1002.5
20260506093706 18 245 12.9 19.3 0.00 0.00 0.00 74 1002.7
20260506093307 18 272 6.4 14.5 0.00 0.00 0.00 75 1002.5
20260506093206 18 312 4.8 14.5 0.00 0.00 0.00 75 1002.6
20260506092706 18 261 16.1 16.1 0.00 0.00 0.00 74 1002.6
20260506092206 18 273 14.5 32.2 0.00 0.00 0.00 74 1002.7
20260506091808 18 108 6.4 16.1 0.00 0.00 0.00 74 1002.7
20260506091706 18 267 9.7 16.1 0.00 0.00 0.00 74 1002.5
20260506091206 18 247 14.5 20.9 0.00 0.00 0.00 74 1002.6
20260506090706 18 261 6.4 20.9 0.00 0.00 0.00 75 1002.6
20260506090307 18 260 9.7 25.7 0.00 0.00 0.00 75 1002.6
20260506090206 18 240 17.7 25.7 0.00 0.00 0.00 75 1002.6
20260506085706 18 266 4.8 16.1 0.00 0.00 0.00 75 1002.7
20260506085206 18 253 8.0 14.5 0.00 0.00 0.00 75 1002.8
20260506084807 18 273 16.1 16.1 0.00 0.00 0.00 75 1002.7
20260506084706 18 264 1.6 16.1 0.00 0.00 0.00 75 1002.7
20260506084206 18 254 8.0 16.1 0.00 0.00 0.00 75 1002.7
20260506083706 18 252 6.4 11.3 0.00 0.00 0.00 75 1002.7
20260506083307 18 0 0.0 16.1 0.00 0.00 0.00 75 1002.7
20260506083206 18 226 12.9 16.1 0.00 0.00 0.00 75 1002.7
20260506082706 18 238 3.2 9.7 0.00 0.00 0.00 75 1002.7
20260506082206 18 0 0.0 19.3 0.00 0.00 0.00 75 1002.8
20260506081807 18 156 1.6 16.1 0.00 0.00 0.00 75 1002.8
20260506081706 18 244 3.2 16.1 0.00 0.00 0.00 75 1002.8
20260506081206 18 280 6.4 16.1 0.00 0.00 0.00 75 1002.8
20260506080706 18 215 12.9 16.1 0.00 0.00 0.00 75 1002.9
20260506080308 18 282 3.2 12.9 0.00 0.00 0.00 75 1002.9
20260506080206 18 246 6.4 11.3 0.00 0.00 0.00 75 1002.9
20260506073308 18 247 8.0 16.1 0.00 0.00 0.00 74 1003.0
20260506073207 18 229 3.2 12.9 0.00 0.00 0.00 74 1003.0
20260506072707 18 225 4.8 11.3 0.00 0.00 0.00 74 1003.0
20260506072207 18 251 4.8 12.9 0.00 0.00 0.00 73 1003.1
20260506071808 18 249 6.4 17.7 0.00 0.00 0.00 73 1003.0
20260506071707 18 254 3.2 6.4 0.00 0.00 0.00 73 1003.0
20260506071207 18 249 12.9 14.5 0.00 0.00 0.00 73 1003.0
20260506070707 18 269 3.2 19.3 0.00 0.00 0.00 73 1003.1
20260506070308 18 252 6.4 12.9 0.00 0.00 0.00 72 1003.1
20260506070207 18 270 6.4 12.9 0.00 0.00 0.00 72 1003.1
20260506062207 18 247 8.0 16.1 0.00 0.00 0.00 70 1003.5
20260506061808 18 0 0.0 14.5 0.00 0.00 0.00 70 1003.5
20260506061707 18 263 4.8 11.3 0.00 0.00 0.00 69 1003.5
20260506061207 18 264 3.2 16.1 0.00 0.00 0.00 69 1003.5
20260506060707 18 291 8.0 19.3 0.00 0.00 0.00 69 1003.4
20260506060308 18 264 6.4 19.3 0.00 0.00 0.00 69 1003.5
20260506060207 18 246 16.1 16.1 0.00 0.00 0.00 68 1003.5
20260506051207 18 251 3.2 8.0 0.00 0.00 0.00 66 1003.7
20260506050706 18 250 1.6 12.9 0.00 0.00 0.00 66 1003.9
20260506050309 18 269 4.8 11.3 0.00 0.00 0.00 65 1003.8
20260506050206 18 263 1.6 11.3 0.00 0.00 0.00 65 1003.8
20260506044808 18 263 1.6 9.7 0.00 0.00 0.00 65 1003.8
20260506044707 18 0 0.0 9.7 0.00 0.00 0.00 65 1003.9
20260506044207 18 240 6.4 16.1 0.00 0.00 0.00 64 1003.8
20260506043707 19 283 9.7 12.9 0.00 0.00 0.00 64 1003.8
20260506043308 19 0 0.0 9.7 0.00 0.00 0.00 64 1003.8
20260506043206 19 264 1.6 9.7 0.00 0.00 0.00 63 1003.8
20260506042706 19 0 0.0 6.4 0.00 0.00 0.00 63 1003.9
20260506042206 19 254 1.6 12.9 0.00 0.00 0.00 63 1003.8
20260506041808 19 265 4.8 11.3 0.00 0.00 0.00 62 1003.8
20260506041706 19 239 9.7 9.7 0.00 0.00 0.00 62 1003.9
20260506041206 19 281 1.6 8.0 0.00 0.00 0.00 62 1003.9
20260506040706 20 286 6.4 11.3 0.00 0.00 0.00 62 1003.8
20260506040308 20 267 6.4 9.7 0.00 0.00 0.00 61 1003.8
20260506040206 20 259 3.2 9.7 0.00 0.00 0.00 61 1003.8
20260506035706 20 290 4.8 12.9 0.00 0.00 0.00 61 1003.7
20260506035206 20 268 12.9 12.9 0.00 0.00 0.00 61 1003.8
20260506034808 20 259 3.2 16.1 0.00 0.00 0.00 60 1003.8
20260506034706 20 0 0.0 14.5 0.00 0.00 0.00 60 1003.8
20260506034206 20 0 0.0 9.7 0.00 0.00 0.00 60 1003.8
20260506033706 20 279 9.7 11.3 0.00 0.00 0.00 60 1003.8
20260506033308 20 207 8.0 14.5 0.00 0.00 0.00 60 1003.7
20260506033206 20 259 11.3 14.5 0.00 0.00 0.00 60 1003.7
20260506032706 20 0 0.0 9.7 0.00 0.00 0.00 60 1003.6
20260506032206 20 257 6.4 12.9 0.00 0.00 0.00 60 1003.7
20260506031808 20 255 11.3 17.7 0.00 0.00 0.00 59 1003.7
20260506031706 20 277 12.9 17.7 0.00 0.00 0.00 59 1003.7
20260506031206 20 227 3.2 17.7 0.00 0.00 0.00 59 1003.6
20260506030706 20 277 3.2 9.7 0.00 0.00 0.00 59 1003.7
20260506030307 20 265 11.3 16.1 0.00 0.00 0.00 58 1003.7
20260506030206 20 230 6.4 16.1 0.00 0.00 0.00 58 1003.7
20260506025706 20 261 12.9 12.9 0.00 0.00 0.00 58 1003.6
20260506025206 20 254 1.6 22.5 0.00 0.00 0.00 58 1003.6
20260506024808 20 166 4.8 19.3 0.00 0.00 0.00 57 1003.7
20260506024706 20 0 0.0 19.3 0.00 0.00 0.00 57 1003.7
20260506024206 20 0 0.0 9.7 0.00 0.00 0.00 57 1003.7
20260506023706 21 350 3.2 14.5 0.00 0.00 0.00 57 1003.8
20260506023307 21 253 6.4 14.5 0.00 0.00 0.00 56 1003.8
20260506023206 21 277 6.4 12.9 0.00 0.00 0.00 56 1003.8
20260506022706 21 225 6.4 9.7 0.00 0.00 0.00 56 1003.9
20260506022206 21 290 3.2 11.3 0.00 0.00 0.00 55 1003.8
20260506021808 21 257 11.3 19.3 0.00 0.00 0.00 55 1003.8
20260506021706 21 157 4.8 19.3 0.00 0.00 0.00 55 1003.7
20260506021206 21 236 4.8 12.9 0.00 0.00 0.00 55 1003.7
20260506020706 21 236 11.3 16.1 0.00 0.00 0.00 54 1003.8
20260506020308 21 178 1.6 12.9 0.00 0.00 0.00 54 1003.7
20260506020206 21 0 0.0 12.9 0.00 0.00 0.00 54 1003.7
20260506015706 21 275 4.8 14.5 0.00 0.00 0.00 54 1003.6
20260506015206 21 192 1.6 14.5 0.00 0.00 0.00 53 1003.6
20260506014807 21 229 12.9 22.5 0.00 0.00 0.00 53 1003.5
20260506014706 21 259 4.8 9.7 0.00 0.00 0.00 53 1003.5
20260506014206 21 258 11.3 12.9 0.00 0.00 0.00 52 1003.5
20260506013706 21 290 1.6 14.5 0.00 0.00 0.00 52 1003.5
20260506013307 21 259 1.6 11.3 0.00 0.00 0.00 52 1003.5
20260506013206 21 269 3.2 11.3 0.00 0.00 0.00 52 1003.6
20260506012706 22 234 4.8 16.1 0.00 0.00 0.00 51 1003.5
20260506012206 22 289 3.2 16.1 0.00 0.00 0.00 51 1003.4
20260506011807 22 267 1.6 20.9 0.00 0.00 0.00 51 1003.4
20260506011706 22 257 6.4 20.9 0.00 0.00 0.00 50 1003.4
20260506011206 22 316 3.2 14.5 0.00 0.00 0.00 50 1003.3
20260506010706 22 281 6.4 12.9 0.00 0.00 0.00 50 1003.3
20260506010308 22 275 1.6 12.9 0.00 0.00 0.00 50 1003.3
20260506010206 22 271 4.8 12.9 0.00 0.00 0.00 49 1003.4
20260506005706 22 295 4.8 11.3 0.00 0.00 0.00 49 1003.2
20260506005206 22 272 4.8 9.7 0.00 0.00 0.00 49 1003.3
20260506004807 22 263 3.2 16.1 0.00 0.00 0.00 48 1003.2
20260506004706 22 5 1.6 16.1 0.00 0.00 0.00 48 1003.1
20260506004206 22 266 9.7 19.3 0.00 0.00 0.00 48 1003.0
20260506003706 22 221 8.0 11.3 0.00 0.00 0.00 47 1003.0
20260506003307 22 264 9.7 17.7 0.00 0.00 0.00 47 1003.0
20260506003206 23 269 12.9 17.7 0.00 0.00 0.00 47 1003.0
20260506002706 23 0 0.0 12.9 0.00 0.00 0.00 47 1003.0
20260506002206 23 260 1.6 16.1 0.00 0.00 0.00 46 1002.9
20260506001807 23 281 9.7 24.1 0.00 0.00 0.00 46 1002.9
20260506001706 23 261 6.4 24.1 0.00 0.00 0.00 46 1002.9
20260506001206 23 243 6.4 9.7 0.00 0.00 0.00 45 1002.8
20260506000706 23 227 8.0 11.3 0.00 0.00 0.00 44 1002.8
20260506000309 23 264 4.8 9.7 0.00 0.00 0.00 44 1002.7
20260506000206 23 0 0.0 8.0 0.00 0.00 0.00 44 1002.7
20260505235706 23 265 4.8 17.7 0.00 0.00 0.00 43 1002.7
20260505235206 23 269 1.6 14.5 0.00 0.00 0.00 43 1002.6
20260505234807 23 0 0.0 11.3 0.00 0.00 0.00 43 1002.5
20260505234706 23 230 9.7 9.7 0.00 0.00 0.00 43 1002.6
20260505234206 24 275 9.7 19.3 0.00 0.00 0.00 43 1002.6
20260505233706 24 252 11.3 22.5 0.00 0.00 0.00 42 1002.5
20260505233308 24 262 12.9 22.5 0.00 0.00 0.00 42 1002.5
20260505233206 24 233 12.9 12.9 0.00 0.00 0.00 42 1002.4
20260505232706 24 275 3.2 22.5 0.00 0.00 0.00 42 1002.5
20260505232206 24 261 14.5 17.7 0.00 0.00 0.00 42 1002.6
20260505231808 24 266 3.2 12.9 0.00 0.00 0.00 42 1002.5
20260505231706 24 335 3.2 12.9 0.00 0.00 0.00 42 1002.5
20260505231206 25 283 6.4 22.5 0.00 0.00 0.00 41 1002.5
20260505230706 25 252 8.0 20.9 0.00 0.00 0.00 41 1002.5
20260505230307 25 252 20.9 20.9 0.00 0.00 0.00 41 1002.6
20260505230206 25 280 6.4 17.7 0.00 0.00 0.00 41 1002.5
20260505225706 25 279 9.7 16.1 0.00 0.00 0.00 42 1002.5
20260505225206 25 255 17.7 24.1 0.00 0.00 0.00 42 1002.5
20260505224807 25 259 11.3 22.5 0.00 0.00 0.00 42 1002.4
20260505224706 25 250 1.6 22.5 0.00 0.00 0.00 42 1002.4
20260505224206 25 205 17.7 24.1 0.00 0.00 0.00 42 1002.3
20260505223706 25 276 12.9 17.7 0.00 0.00 0.00 42 1002.4
20260505223307 25 259 4.8 12.9 0.00 0.00 0.00 42 1002.4
20260505223206 25 275 4.8 12.9 0.00 0.00 0.00 42 1002.4
20260505222706 25 244 14.5 17.7 0.00 0.00 0.00 41 1002.5
20260505222206 25 261 9.7 14.5 0.00 0.00 0.00 42 1002.4
20260505221808 25 239 12.9 19.3 0.00 0.00 0.00 41 1002.5
20260505221706 25 227 16.1 19.3 0.00 0.00 0.00 41 1002.5
20260505221206 25 256 11.3 16.1 0.00 0.00 0.00 41 1002.4
20260505220706 25 340 1.6 17.7 0.00 0.00 0.00 40 1002.5
20260505220307 25 273 12.9 22.5 0.00 0.00 0.00 40 1002.5
20260505220206 25 269 4.8 22.5 0.00 0.00 0.00 41 1002.4
20260505215706 25 256 16.1 30.6 0.00 0.00 0.00 40 1003.1
20260505215206 26 274 14.5 27.4 0.00 0.00 0.00 40 1002.4
20260505214807 26 270 3.2 19.3 0.00 0.00 0.00 40 1002.3
20260505214706 26 206 9.7 19.3 0.00 0.00 0.00 40 1002.4
20260505214206 26 273 16.1 22.5 0.00 0.00 0.00 40 1002.3
20260505213706 26 0 0.0 12.9 0.00 0.00 0.00 40 1002.2
20260505213307 26 272 3.2 22.5 0.00 0.00 0.00 39 1002.5
20260505213206 26 270 16.1 22.5 0.00 0.00 0.00 40 1002.5
20260505212706 26 271 9.7 25.7 0.00 0.00 0.00 39 1002.3
20260505212206 26 245 24.1 29.0 0.00 0.00 0.00 39 1002.2
20260505211807 26 216 8.0 27.4 0.00 0.00 0.00 39 1002.3
20260505211706 26 283 6.4 27.4 0.00 0.00 0.00 38 1002.3
20260505211206 26 272 11.3 30.6 0.00 0.00 0.00 38 1002.4
20260505210706 26 217 30.6 30.6 0.00 0.00 0.00 38 1002.4
20260505210307 26 254 16.1 19.3 0.00 0.00 0.00 38 1002.4
20260505210206 26 283 4.8 19.3 0.00 0.00 0.00 37 1002.4
20260505205706 26 291 4.8 29.0 0.00 0.00 0.00 38 1002.2
20260505205206 26 265 6.4 20.9 0.00 0.00 0.00 38 1002.4
20260505204807 26 243 16.1 20.9 0.00 0.00 0.00 37 1002.5
20260505204706 26 262 17.7 20.9 0.00 0.00 0.00 37 1002.4
20260505204206 26 225 9.7 24.1 0.00 0.00 0.00 36 1002.3
20260505203706 26 269 6.4 24.1 0.00 0.00 0.00 36 1002.3
20260505203307 26 244 17.7 19.3 0.00 0.00 0.00 37 1002.4
20260505203206 26 48 3.2 12.9 0.00 0.00 0.00 37 1002.3
20260505202706 26 234 17.7 38.6 0.00 0.00 0.00 36 1002.3
20260505202206 26 290 16.1 30.6 0.00 0.00 0.00 36 1002.3
20260505201807 26 246 20.9 24.1 0.00 0.00 0.00 37 1002.4
20260505201706 26 0 0.0 24.1 0.00 0.00 0.00 36 1002.5
20260505201206 26 177 9.7 20.9 0.00 0.00 0.00 36 1002.5
20260505200706 26 279 11.3 29.0 0.00 0.00 0.00 37 1002.7
20260505200307 26 0 0.0 38.6 0.00 0.00 0.00 35 1002.4
20260505200206 27 267 9.7 38.6 0.00 0.00 0.00 36 1002.5
20260505195706 27 0 0.0 22.5 0.00 0.00 0.00 37 1002.6
20260505195206 27 259 14.5 24.1 0.00 0.00 0.00 36 1002.6
20260505194807 27 283 11.3 16.1 0.00 0.00 0.00 37 1002.6
20260505194706 27 275 1.6 16.1 0.00 0.00 0.00 37 1002.5
20260505194206 26 268 19.3 20.9 0.00 0.00 0.00 36 1002.5
20260505193706 27 280 16.1 19.3 0.00 0.00 0.00 37 1002.6
20260505193307 27 259 6.4 16.1 0.00 0.00 0.00 37 1002.6
20260505193206 27 265 6.4 14.5 0.00 0.00 0.00 38 1002.5